Time,TemperatureF,DewpointF,PressureIn,WindDirection,WindDirectionDegrees,WindSpeedMPH,WindSpeedGustMPH,Humidity,HourlyPrecipIn,Conditions,Clouds,dailyrainin,SolarRadiationWatts/m^2,SoftwareType,DateUTC
2013-04-17 00:00:00,24.0,23.0,30.23,ENE,68,1.0,-999.0,97,-99.99,,,-99.99,0.020000,,2013-04-17 06:00:00,
2013-04-17 00:52:00,24.0,23.0,30.23,ENE,68,1.0,-999.0,97,-99.99,,,-99.99,0.020000,,2013-04-17 06:52:00,
2013-04-17 02:00:00,22.0,22.0,30.22,North,8,0.0,-999.0,98,-99.99,,,-99.99,0.030000,,2013-04-17 08:00:00,
2013-04-17 02:52:00,22.0,22.0,30.22,North,8,0.0,-999.0,98,-99.99,,,-99.99,0.030000,,2013-04-17 08:52:00,
2013-04-17 03:00:00,21.0,21.0,30.21,West,277,2.0,-999.0,98,-99.99,,,-99.99,0.020000,,2013-04-17 09:00:00,
2013-04-17 03:52:00,21.0,21.0,30.21,West,277,2.0,-999.0,98,-99.99,,,-99.99,0.020000,,2013-04-17 09:52:00,
2013-04-17 04:00:00,20.0,19.0,30.21,WNW,287,2.0,-999.0,97,-99.99,,,-99.99,0.030000,,2013-04-17 10:00:00,
2013-04-17 04:53:00,20.0,19.0,30.21,WNW,287,2.0,-999.0,97,-99.99,,,-99.99,0.030000,,2013-04-17 10:53:00,
2013-04-17 07:00:00,23.0,23.0,30.20,North,4,1.0,-999.0,98,-99.99,,,-99.99,8.730000,,2013-04-17 13:00:00,
2013-04-17 07:52:00,23.0,23.0,30.20,North,4,1.0,-999.0,98,-99.99,,,-99.99,8.730000,,2013-04-17 13:52:00,
2013-04-17 08:00:00,23.0,23.0,30.20,NNW,330,3.0,-999.0,97,-99.99,,,-99.99,57.209999,,2013-04-17 14:00:00,
2013-04-17 08:52:00,23.0,23.0,30.20,NNW,330,3.0,-999.0,97,-99.99,,,-99.99,57.209999,,2013-04-17 14:52:00,
2013-04-17 09:00:00,23.0,23.0,30.21,NW,320,6.0,-999.0,97,-99.99,,,-99.99,110.599998,,2013-04-17 15:00:00,
2013-04-17 09:53:00,23.0,23.0,30.21,NW,320,6.0,-999.0,97,-99.99,,,-99.99,110.599998,,2013-04-17 15:53:00,
2013-04-17 10:00:00,25.0,23.0,30.22,NW,318,4.0,-999.0,94,-99.99,,,-99.99,196.699997,,2013-04-17 16:00:00,
2013-04-17 10:52:00,25.0,23.0,30.22,NW,318,4.0,-999.0,94,-99.99,,,-99.99,196.699997,,2013-04-17 16:52:00,
2013-04-17 11:00:00,26.0,23.0,30.22,NNW,345,6.0,-999.0,90,-99.99,,,-99.99,284.000000,,2013-04-17 17:00:00,
2013-04-17 11:52:00,26.0,23.0,30.22,NNW,345,6.0,-999.0,90,-99.99,,,-99.99,284.000000,,2013-04-17 17:52:00,
2013-04-17 12:00:00,27.0,23.0,30.21,NNW,344,7.0,-999.0,84,-99.99,,,-99.99,396.299988,,2013-04-17 18:00:00,
2013-04-17 12:52:00,27.0,23.0,30.21,NNW,344,7.0,-999.0,84,-99.99,,,-99.99,396.299988,,2013-04-17 18:52:00,
2013-04-17 13:00:00,28.0,23.0,30.20,NNW,337,9.0,-999.0,81,-99.99,,,-99.99,561.299988,,2013-04-17 19:00:00,
2013-04-17 13:52:00,28.0,23.0,30.20,NNW,337,9.0,-999.0,81,-99.99,,,-99.99,561.299988,,2013-04-17 19:52:00,
2013-04-17 14:00:00,28.0,22.0,30.20,NNW,348,10.0,-999.0,78,-99.99,,,-99.99,490.600006,,2013-04-17 20:00:00,
2013-04-17 14:52:00,28.0,22.0,30.20,NNW,348,10.0,-999.0,78,-99.99,,,-99.99,490.600006,,2013-04-17 20:52:00,
2013-04-17 15:00:00,28.0,22.0,30.20,NNW,337,10.0,-999.0,76,-99.99,,,-99.99,345.799988,,2013-04-17 21:00:00,
2013-04-17 15:53:00,28.0,22.0,30.20,NNW,337,10.0,-999.0,76,-99.99,,,-99.99,345.799988,,2013-04-17 21:53:00,
2013-04-17 16:00:00,29.0,20.0,30.19,NNW,332,10.0,-999.0,71,-99.99,,,-99.99,286.299988,,2013-04-17 22:00:00,
2013-04-17 16:53:00,29.0,20.0,30.19,NNW,332,10.0,-999.0,71,-99.99,,,-99.99,286.299988,,2013-04-17 22:53:00,
2013-04-17 17:00:00,28.0,22.0,30.19,NNW,327,11.0,-999.0,75,-99.99,,,-99.99,237.199997,,2013-04-17 23:00:00,
2013-04-17 17:52:00,28.0,22.0,30.19,NNW,327,11.0,-999.0,75,-99.99,,,-99.99,237.199997,,2013-04-17 23:52:00,
2013-04-17 18:00:00,29.0,23.0,30.20,NW,308,11.0,-999.0,78,-99.99,,,-99.99,184.600006,,2013-04-18 00:00:00,
2013-04-17 18:52:00,29.0,23.0,30.20,NW,308,11.0,-999.0,78,-99.99,,,-99.99,184.600006,,2013-04-18 00:52:00,
2013-04-17 19:00:00,27.0,20.0,30.20,WNW,299,12.0,-999.0,75,-99.99,,,-99.99,150.199997,,2013-04-18 01:00:00,
2013-04-17 19:52:00,27.0,20.0,30.20,WNW,299,12.0,-999.0,75,-99.99,,,-99.99,150.199997,,2013-04-18 01:52:00,
2013-04-17 20:00:00,24.0,19.0,30.20,WNW,301,10.0,-999.0,80,-99.99,,,-99.99,38.680000,,2013-04-18 02:00:00,
2013-04-17 21:00:00,21.0,17.0,30.21,NW,306,6.0,-999.0,85,-99.99,,,-99.99,0.280000,,2013-04-18 03:00:00,
2013-04-17 21:53:00,21.0,17.0,30.21,NW,306,6.0,-999.0,85,-99.99,,,-99.99,0.280000,,2013-04-18 03:53:00,
2013-04-17 22:00:00,19.0,16.0,30.20,West,280,7.0,-999.0,86,-99.99,,,-99.99,0.040000,,2013-04-18 04:00:00,
2013-04-17 22:53:00,19.0,16.0,30.20,West,280,7.0,-999.0,86,-99.99,,,-99.99,0.040000,,2013-04-18 04:53:00,
2013-04-17 23:00:00,19.0,16.0,30.18,WNW,283,7.0,-999.0,88,-99.99,,,-99.99,0.030000,,2013-04-18 05:00:00,
2013-04-17 23:52:00,19.0,16.0,30.18,WNW,283,7.0,-999.0,88,-99.99,,,-99.99,0.030000,,2013-04-18 05:52:00,